{"data":{"norad_id":57699,"epoch":"2026-09-20T05:01:23.804256Z","epoch_age_seconds":156710,"freshness":"FRESH","line1":"1 57699U 23129B   26263.20930329 -.00000182  00000+0  29018-5 0  9996","line2":"2 57699  43.0020  88.1256 0001071 267.7431  92.3298 15.27574423170568","mean_motion":15.27574423,"eccentricity":0.0001071,"inclination_deg":43.002,"raan_deg":88.1256,"arg_perigee_deg":267.7431,"mean_anomaly_deg":92.3298,"bstar":2.9018e-6,"rev_number":17056,"period_min":94.2670928708,"perigee_km":482.33096081536,"apogee_km":483.80063045419,"semimajor_km":6861.2027956348,"source":"CELESTRAK","updated_at":"2026-09-21T09:00:33.673965Z"}}